Regional Weather Roundup
Issued by NWS

Home | Current Version | Previous Version | Text Only | Print | Product List | Glossary Off
Versions: 1 2 3 4 5 6 7 8 9 10 11 12 13 14 15 16 17 18 19 20 21 22 23 24 25 26 27 28 29 30 31 32 33 34 35 36 37 38 39 40 41 42 43 44 45 46 47 48 49 50

000
ASUS43 KLSX 020059
RWRMO

WEATHER SUMMARY FOR MISSOURI
NATIONAL WEATHER SERVICE SPRINGFIELD MO
800 PM CDT SAT AUG 01 2015

NOTE: "FAIR" INDICATES FEW OR NO CLOUDS BELOW 12,000 FEET WITH NO
       SIGNIFICANT WEATHER AND/OR OBSTRUCTIONS TO VISIBILITY.
       CURRENT SKY AND/OR WEATHER CONDITIONS ARE NOT AVAILABLE FOR
       CHILLICOTHE AND FARMINGTON.

MOZ001>031-035>038-043-044-053-054-020200-
...NORTHERN AND WESTERN MISSOURI...

CITY           SKY/WX    TMP DP  RH WIND       PRES   REMARKS
KANSAS CTY INT PTCLDY    77  63  61 SE17      29.96S
KANSAS C DTWN  CLEAR     79  62  56 SE16G23   29.96R
LEE`S SUMMIT   CLEAR     76  61  59 E12       29.98F
ST JOSEPH      CLEAR     84  74  71 S7        29.92S HX  91
CHILLICOTHE      N/A     69  68  96 VRB6      29.98R
KIRKSVILLE     PTCLDY    76  64  66 SW8       29.97S

$$
MOZ066>068-077>081-088>096-101>105-020200-
...SOUTHWEST MISSOURI...

CITY           SKY/WX    TMP DP  RH WIND       PRES   REMARKS
SPRINGFIELD    MOCLDY    84  65  52 NE10      29.99S
JOPLIN         CLEAR     86  68  54 SW6       29.97S

$$
MOZ032>034-039>042-045>050-055>058-069>072-020200-
...CENTRAL MISSOURI...

CITY           SKY/WX    TMP DP  RH WIND       PRES   REMARKS
COLUMBIA       CLOUDY    73  69  87 SW5       29.97F
JEFFERSON CITY MOCLDY    77  66  68 SW5       29.96F
ROLLA          CLEAR     80  71  74 CALM      29.99S
SEDALIA        CLOUDY    74  65  73 N5        30.00F
WARRENSBURG    PTCLDY    72  63  73 E6        29.97F
OSAGE BEACH    CLEAR     75  66  73 N3        30.00R

$$
MOZ051-052-059>065-020200-
...EAST CENTRAL MISSOURI...

CITY           SKY/WX    TMP DP  RH WIND       PRES   REMARKS
ST LOUIS INTL  CLOUDY    87  67  51 SW5       29.96F HX  90
SPIRIT OF STL  CLOUDY    81  76  84 CALM      29.94F
ST CHARLES     CLOUDY    82  72  71 E3        29.95S

$$
MOZ072>076-082>087-097>100-106>115-020200-
...SOUTH CENTRAL AND SOUTHEAST MISSOURI...

CITY           SKY/WX    TMP DP  RH WIND       PRES   REMARKS
CAPE GIRARDEAU PTCLDY    81  73  76 E3        29.96F
FARMINGTON     MOCLDY    81  72  74 CALM      30.03S
POPLAR BLUFF   CLEAR     82  76  81 CALM      29.94S
WEST PLAINS    CLEAR     83  68  60 CALM      30.02S

$$


USA.gov is the U.S. government's official web portal to all federal, state and local government web resources and services.